FLOCK 4S-12 (47471 NORAD) Tracking and Keplerian Element Data

This shows tracking and keplerian element data for the satellite.

Feedback or suggestion? Click here.




ElementValue
Catalog47471
NameFLOCK 4S-12
Epoch Orbit1198
Epoch Day101.91579637
Epoch Year2021
RAAN164.2256
Inclination97.4993
Eccentricity0.0008052
Argument of Perigee358.7719
Mean Anonmoly1.349
Mean Motion15.11805483
Decay Rate2.306E-05
L11 47471U 21006BL 21101.91579637 .00002306 00000-0 13873-3 0 9990
L22 47471 97.4993 164.2256 0008052 358.7719 1.3490 15.11805483 11989

Live tracking and technical data element details for FLOCK 4S-12 (NORAD 47471). FLOCK 4S-12 can be tracked NOW for your location showing map with azimuth and elevation plus other details from your city location.

Track the satellite on the map from your city or location and see movement details for azimuth, elevation, latitude, longitude, range, height, and movement on the map or in text.







IsCatalogInMostPopularTable: catalog: 47471, numindb: 16
Update: records affected: 1



GetName: 47471 FLOCK 4S-12

Hit Count: updated at: Tue, 13 Apr 2021 04:11:48 GMT